Regional Weather Roundup
Issued by NWS

Home | Current Version | Previous Version | Graphics & Text | Print | Product List | Glossary On
Versions: 1 2 3 4 5 6 7 8 9 10 11 12 13 14 15 16 17 18 19 20 21 22 23 24 25 26 27 28 29 30 31 32 33 34 35 36 37 38 39 40 41 42 43 44 45 46 47 48 49 50
000
ASUS43 KFSD 282110
RWRSD

WEATHER ROUNDUP FOR SOUTH DAKOTA
NATIONAL WEATHER SERVICE SIOUX FALLS SD
400 PM CDT FRI AUG 28 2015

NOTE: "FAIR" INDICATES FEW OR NO CLOUDS BELOW 12,000 FEET WITH NO
SIGNIFICANT WEATHER AND/OR OBSTRUCTIONS TO VISIBILITY.


SDZ001>005-009-010-012>017-282200-
NORTHWEST AND NORTH CENTRAL SOUTH DAKOTA

CITY           SKY/WX    TMP DP  RH WIND       PRES   REMARKS
BUFFALO          N/A     87  51  28 W12       29.93F
FAITH            N/A     86  60  41 SW13      29.96F
MOBRIDGE       SUNNY     82  71  69 SE14      29.91F
$$

SDZ012>016-024>037-041>051-057-063-072>074-282200-
SOUTHWEST AND SOUTH CENTRAL SOUTH DAKOTA

CITY           SKY/WX    TMP DP  RH WIND       PRES   REMARKS
RAPID CTY ARPT SUNNY     87  56  34 NE6       30.03F
PIERRE         SUNNY     81  66  60 S7        29.94F
CUSTER         SUNNY     78  45  30 E3        30.20S
ELLSWORTH AFB  SUNNY     87  51  28 N8        30.03S
PHILIP         SUNNY     82  66  58 S6        29.98F
PINE RIDGE     SUNNY     87  52  29 VRB5      30.06S
WINNER         CLOUDY    77  64  64 NE7       30.00S
$$

SDZ004>011-016>023-039-040-282200-
NORTHEAST SOUTH DAKOTA

CITY           SKY/WX    TMP DP  RH WIND       PRES   REMARKS
ABERDEEN       MOSUNNY   78  67  68 S10       29.93F
WATERTOWN      MOSUNNY   77  64  64 S12       29.95F
BROOKINGS      CLOUDY    73  63  68 E9        29.99S
SISSETON         N/A     81  64  56 S10       29.92R
$$

SDZ017-020-022-023-036>040-048>070-282200-
SOUTHEAST SOUTH DAKOTA

CITY           SKY/WX    TMP DP  RH WIND       PRES   REMARKS
SIOUX FALLS    CLOUDY    71  62  73 NE12      29.95S
HURON          PTSUNNY   79  65  62 CALM      29.94F
CHAMBERLAIN    SUNNY     75  65  72 CALM      29.98S
MITCHELL       PTSUNNY   79  64  60 N5        29.95F
YANKTON        MOSUNNY   73  63  68 N17       29.92S
$$

ABBREVIATIONS USED IN REMARKS
   TC - TEMPERATURE IN CELSIUS
  WCI - WIND CHILL INDEX
   HX - HEAT INDEX
  VSB - VISIBILITY



USA.gov is the U.S. government's official web portal to all federal, state and local government web resources and services.